Temp
-10 -10 -10 -10 -10 -10 -10 -11 -11 -10 -10 -10 -9 -9 -9 -9 -9 -9 -9 -10 -9 -9 -9 -9 -9 -9 -9 -9 -9 -9 -9 -9 -9 -9 -9 -9 -9 -9 -10 -10 -10 -10 -10
-10 -10 -10 -10 -10 -10 -10 -10 -10 -10 -10 -10 -10 -10 -10 -10 -10 -10 -10 -10 -10 -10 -10 -10 -10 -10 -10 -9 -10 -10 -10 -10 -10 -9 -9 -9 -9 -9 -10 -10 -10 -10 -10
-10 -10 -9 -9 -10 -10 -10 -10 -10 -10 -10 -10 -10 -10 -10 -10 -10 -10 -10 -10 -10 -10 -10 -10 -10 -10 -10 -10 -10 -10 -10 -9 -10 -10 -10 -9 -9 -9 -9 -10 -10 -10 -10
-9 -9 -9 -10 -10 -10 -10 -10 -10 -10 -10 -10 -10 -10 -10 -10 -10 -11 -11 -11 -10 -10 -10 -10 -10 -10 -10 -10 -10 -10 -9 -9 -9 -9 -10 -10 -10 -10 -9 -10 -10 -10 -10
-9 -9 -9 -10 -9 -9 -10 -10 -10 -10 -10 -10 -10 -11 -11 -11 -11 -11 -11 -10 -10 -10 -10 -10 -10 -10 -10 -10 -10 -10 -10 -10 -10 -10 -10 -11 -11 -11 -11 -10 -10 -11 -11
-9 -9 -9 -9 -10 -10 -10 -10 -10 -10 -10 -11 -11 -11 -11 -11 -11 -11 -10 -10 -10 -10 -10 -10 -10 -10 -10 -10 -10 -10 -11 -11 -11 -11 -11 -11 -11 -11 -12 -12 -11 -11 -11
-9 -9 -9 -10 -10 -10 -10 -10 -11 -11 -11 -11 -11 -11 -11 -11 -11 -11 -11 -10 -10 -10 -10 -10 -10 -10 -10 -10 -11 -11 -11 -11 -12 -12 -12 -12 -12 -12 -12 -12 -11 -11 -11
-10 -10 -10 -11 -11 -11 -11 -11 -11 -11 -11 -11 -11 -11 -11 -11 -11 -11 -11 -11 -11 -11 -11 -11 -11 -11 -11 -11 -12 -12 -12 -12 -12 -12 -12 -12 -12 -12 -12 -12 -13 -12 -12
-10 -11 -11 -11 -11 -11 -11 -12 -12 -12 -11 -11 -11 -11 -11 -11 -11 -11 -11 -11 -11 -11 -11 -11 -11 -11 -12 -12 -13 -13 -12 -12 -12 -13 -13 -13 -13 -13 -14 -16 -19 -21 -20
-11 -12 -12 -12 -12 -12 -12 -12 -12 -12 -12 -12 -12 -11 -11 -11 -11 -11 -11 -11 -11 -11 -11 -11 -12 -13 -13 -13 -13 -13 -13 -13 -13 -13 -13 -14 -15 -16 -19 -22 -23 -24 -24
-12 -12 -12 -12 -13 -12 -12 -12 -12 -12 -12 -12 -12 -12 -11 -11 -11 -11 -11 -12 -12 -12 -12 -13 -13 -13 -13 -13 -13 -13 -13 -14 -14 -14 -15 -18 -20 -22 -23 -24 -24 -24 -24
-13 -13 -13 -13 -13 -13 -13 -13 -12 -12 -12 -12 -12 -11 -11 -11 -11 -12 -12 -12 -12 -13 -13 -13 -13 -13 -13 -13 -14 -14 -14 -14 -15 -17 -20 -23 -24 -24 -24 -24 -24 -24 -25
-13 -13 -13 -13 -13 -13 -13 -12 -12 -12 -12 -12 -12 -12 -12 -12 -12 -12 -13 -13 -13 -13 -13 -13 -14 -14 -14 -14 -14 -15 -15 -17 -19 -23 -23 -23 -23 -23 -23 -24 -24 -24 -24
-13 -13 -13 -13 -13 -13 -13 -12 -12 -12 -12 -12 -12 -12 -12 -13 -13 -13 -14 -14 -13 -14 -14 -14 -14 -14 -15 -15 -16 -16 -18 -22 -23 -23 -23 -22 -22 -22 -23 -23 -24 -24 -24
-13 -13 -13 -13 -13 -13 -12 -12 -13 -13 -13 -13 -13 -13 -13 -14 -14 -14 -14 -14 -14 -14 -14 -15 -15 -15 -16 -17 -18 -20 -23 -23 -23 -23 -23 -23 -24 -25 -25 -25 -25 -26 -26
-13 -13 -13 -13 -13 -13 -13 -13 -13 -13 -13 -13 -14 -14 -14 -14 -14 -14 -14 -14 -15 -15 -15 -15 -16 -17 -19 -20 -23 -24 -24 -23 -23 -23 -24 -25 -25 -25 -25 -26 -27 -27 -29
-13 -13 -13 -13 -13 -14 -14 -14 -14 -14 -14 -14 -14 -15 -15 -15 -15 -15 -15 -15 -15 -16 -16 -16 -17 -19 -22 -24 -24 -24 -24 -23 -23 -24 -25 -26 -26 -26 -26 -26 -27 -29 -30
-14 -14 -14 -14 -14 -14 -14 -14 -14 -14 -15 -15 -15 -15 -15 -15 -15 -15 -16 -16 -16 -16 -17 -18 -19 -22 -24 -25 -25 -24 -24 -24 -25 -26 -26 -26 -26 -26 -27 -27 -27 -28 -30
-14 -14 -14 -14 -14 -14 -14 -15 -15 -15 -15 -15 -15 -15 -15 -15 -15 -16 -16 -16 -17 -17 -18 -20 -22 -24 -25 -25 -25 -24 -24 -25 -26 -26 -27 -27 -27 -27 -27 -27 -27 -28 -29
-14 -14 -14 -14 -15 -15 -15 -15 -15 -15 -16 -16 -16 -16 -16 -16 -16 -16 -17 -17 -17 -18 -20 -22 -24 -25 -26 -25 -25 -24 -25 -26 -26 -27 -27 -27 -27 -27 -28 -28 -28 -27 -28
-14 -14 -15 -14 -15 -15 -15 -15 -15 -16 -16 -16 -16 -16 -17 -17 -17 -17 -18 -18 -18 -20 -22 -24 -25 -26 -26 -25 -25 -25 -26 -27 -26 -27 -27 -27 -28 -28 -29 -28 -28 -28 -28
-14 -14 -14 -15 -15 -15 -15 -15 -16 -16 -16 -16 -17 -17 -18 -18 -18 -18 -18 -19 -20 -22 -24 -25 -26 -26 -26 -26 -25 -26 -27 -27 -27 -27 -27 -28 -28 -29 -29 -28 -28 -28 -28
-14 -15 -15 -15 -16 -15 -15 -16 -16 -17 -17 -17 -18 -18 -18 -18 -19 -19 -19 -20 -22 -24 -26 -26 -26 -26 -26 -26 -25 -27 -27 -27 -27 -27 -28 -28 -28 -28 -29 -28 -28 -27 -28
-15 -15 -16 -16 -15 -15 -16 -16 -17 -17 -18 -18 -18 -18 -19 -19 -19 -19 -20 -22 -24 -26 -26 -26 -26 -26 -26 -26 -26 -27 -27 -27 -27 -28 -28 -28 -28 -28 -28 -28 -28 -28 -28
-16 -16 -16 -15 -16 -16 -16 -17 -17 -18 -18 -18 -19 -19 -19 -19 -19 -20 -22 -24 -26 -27 -27 -27 -27 -26 -26 -26 -27 -27 -28 -28 -28 -28 -28 -28 -28 -28 -28 -28 -28 -28 -28
-16 -16 -16 -16 -16 -17 -17 -17 -18 -18 -18 -19 -19 -19 -19 -20 -20 -21 -24 -26 -27 -27 -27 -27 -27 -27 -27 -26 -28 -28 -28 -28 -28 -28 -28 -28 -28 -28 -28 -28 -28 -27 -27
Height
5806 5807 5807 5807 5806 5805 5805 5805 5804 5804 5802 5801 5799 5797 5794 5791 5787 5783 5780 5777 5774 5771 5768 5766 5763 5759 5756 5752 5748 5744 5740 5735 5729 5726 5724 5721 5716 5710 5705 5702 5697 5691 5685
5800 5801 5801 5800 5800 5800 5800 5800 5799 5798 5797 5795 5793 5790 5787 5783 5780 5777 5774 5771 5767 5764 5761 5757 5754 5750 5745 5741 5736 5732 5728 5723 5717 5710 5706 5704 5705 5699 5695 5688 5682 5676 5671
5795 5795 5795 5794 5793 5794 5795 5795 5794 5793 5791 5788 5785 5782 5780 5777 5774 5770 5767 5764 5760 5756 5752 5748 5744 5740 5736 5731 5726 5721 5715 5710 5705 5696 5687 5684 5682 5678 5676 5672 5666 5661 5655
5789 5789 5789 5788 5788 5787 5787 5788 5788 5787 5784 5781 5777 5775 5772 5770 5766 5763 5760 5756 5752 5748 5744 5739 5735 5730 5726 5721 5715 5709 5702 5695 5689 5682 5674 5665 5657 5651 5654 5650 5643 5636 5630
5784 5784 5784 5783 5782 5782 5781 5781 5781 5780 5778 5774 5771 5768 5765 5762 5759 5756 5752 5748 5744 5740 5735 5730 5725 5720 5714 5707 5700 5692 5684 5676 5668 5660 5652 5645 5636 5626 5619 5628 5619 5614 5605
5779 5779 5778 5777 5776 5776 5776 5775 5774 5772 5769 5767 5764 5761 5758 5755 5751 5748 5743 5738 5733 5728 5723 5717 5711 5704 5698 5690 5683 5675 5666 5658 5649 5641 5631 5622 5612 5603 5592 5584 5590 5583 5584
5774 5773 5772 5770 5770 5770 5770 5768 5765 5762 5761 5759 5756 5753 5750 5746 5742 5738 5734 5729 5723 5717 5710 5704 5697 5690 5683 5675 5667 5658 5649 5640 5630 5620 5610 5600 5588 5575 5563 5551 5547 5542 5549
5767 5767 5765 5763 5762 5762 5762 5760 5757 5755 5753 5751 5747 5743 5740 5737 5733 5728 5723 5717 5711 5704 5698 5690 5682 5674 5666 5657 5648 5639 5629 5619 5608 5596 5583 5571 5557 5543 5529 5516 5501 5498 5499
5761 5759 5758 5756 5755 5754 5754 5752 5750 5747 5745 5742 5739 5735 5731 5727 5722 5717 5711 5704 5697 5689 5681 5673 5664 5655 5646 5637 5628 5618 5607 5595 5582 5568 5554 5540 5527 5513 5499 5485 5473 5457 5448
5753 5752 5750 5748 5747 5747 5746 5744 5742 5740 5737 5734 5730 5726 5722 5717 5711 5705 5698 5690 5682 5674 5665 5656 5646 5637 5628 5619 5608 5597 5584 5572 5557 5543 5529 5511 5497 5485 5472 5461 5451 5442 5424
5746 5745 5743 5742 5742 5741 5738 5736 5734 5732 5729 5725 5720 5716 5711 5706 5700 5692 5685 5677 5668 5659 5649 5640 5631 5620 5609 5597 5586 5573 5561 5548 5533 5516 5500 5484 5470 5460 5450 5441 5431 5423 5410
5739 5739 5738 5736 5735 5733 5731 5730 5726 5723 5720 5716 5711 5706 5700 5693 5687 5679 5670 5662 5653 5643 5634 5623 5612 5600 5587 5575 5563 5551 5537 5521 5504 5488 5473 5460 5447 5438 5427 5417 5409 5398 5391
5733 5733 5732 5730 5729 5727 5724 5721 5718 5715 5710 5705 5700 5694 5688 5681 5673 5665 5656 5648 5638 5628 5616 5604 5592 5580 5566 5553 5540 5525 5509 5492 5476 5460 5447 5434 5420 5410 5397 5388 5379 5371 5364
5727 5726 5726 5724 5722 5719 5716 5713 5709 5705 5700 5695 5689 5682 5675 5668 5659 5651 5643 5633 5623 5611 5598 5585 5571 5557 5542 5527 5513 5499 5485 5470 5455 5438 5421 5407 5392 5378 5367 5356 5347 5339 5331
5720 5719 5719 5717 5714 5710 5707 5704 5699 5694 5689 5683 5676 5669 5662 5653 5645 5637 5627 5616 5605 5593 5579 5566 5550 5533 5517 5503 5489 5475 5461 5448 5433 5416 5399 5383 5368 5354 5342 5330 5322 5312 5303
5713 5712 5710 5707 5704 5701 5698 5694 5688 5683 5677 5671 5664 5656 5648 5639 5631 5622 5611 5600 5587 5574 5560 5544 5530 5513 5497 5483 5468 5453 5441 5426 5409 5392 5379 5363 5350 5339 5327 5315 5304 5295 5280
5706 5704 5702 5699 5696 5692 5688 5683 5678 5672 5665 5658 5650 5643 5634 5625 5616 5605 5594 5582 5570 5556 5541 5526 5509 5494 5479 5465 5450 5436 5421 5405 5386 5370 5358 5348 5336 5323 5312 5303 5291 5282 5269
5698 5696 5693 5690 5687 5683 5678 5672 5667 5659 5652 5644 5636 5627 5619 5609 5599 5588 5577 5565 5552 5538 5523 5505 5488 5477 5461 5446 5431 5416 5402 5386 5369 5353 5341 5331 5321 5307 5296 5287 5278 5268 5256
5690 5687 5685 5682 5677 5672 5667 5661 5654 5645 5638 5630 5620 5613 5604 5594 5583 5572 5560 5548 5535 5519 5502 5485 5470 5457 5445 5428 5412 5395 5382 5368 5354 5341 5327 5315 5305 5294 5283 5273 5265 5257 5248
5681 5678 5675 5671 5666 5661 5654 5647 5640 5632 5624 5615 5606 5598 5588 5577 5567 5555 5543 5529 5512 5499 5485 5469 5451 5438 5426 5412 5394 5377 5362 5351 5340 5328 5316 5303 5291 5281 5271 5261 5251 5246 5239
5672 5669 5665 5661 5655 5648 5641 5634 5626 5618 5610 5601 5592 5582 5571 5561 5549 5537 5522 5508 5494 5479 5465 5454 5440 5427 5411 5397 5380 5364 5347 5333 5325 5314 5304 5291 5280 5272 5263 5251 5241 5234 5227
5661 5658 5653 5647 5641 5635 5628 5620 5612 5604 5595 5586 5577 5567 5555 5543 5532 5518 5504 5490 5474 5461 5449 5438 5429 5414 5398 5383 5365 5348 5333 5319 5307 5300 5291 5281 5271 5263 5254 5243 5234 5226 5219
5651 5646 5640 5634 5628 5621 5614 5606 5598 5589 5581 5572 5562 5551 5539 5526 5512 5498 5485 5472 5456 5443 5433 5422 5413 5402 5386 5369 5350 5333 5320 5309 5297 5288 5279 5271 5262 5253 5245 5235 5226 5220 5214
5638 5633 5627 5621 5613 5606 5599 5592 5585 5576 5567 5558 5547 5536 5523 5510 5496 5482 5466 5452 5439 5428 5416 5407 5396 5385 5371 5354 5336 5322 5311 5299 5287 5278 5270 5260 5251 5243 5235 5227 5220 5214 5209
5625 5620 5613 5606 5599 5592 5586 5579 5570 5562 5553 5542 5531 5518 5506 5493 5481 5465 5450 5437 5424 5411 5401 5390 5378 5367 5355 5340 5322 5308 5298 5287 5276 5266 5259 5250 5242 5236 5228 5222 5216 5212 5209
5612 5606 5599 5592 5585 5578 5571 5564 5555 5546 5537 5526 5515 5503 5491 5477 5463 5450 5438 5423 5411 5399 5387 5375 5364 5353 5338 5323 5310 5299 5289 5278 5268 5259 5249 5241 5235 5228 5224 5219 5215 5213 5210
Wind_Speed
25 25 27 29 29 25 25 26 23 23 24 26 31 34 39 40 39 36 34 33 34 34 36 38 40 42 44 46 48 50 49 49 52 54 54 54 54 55 56 54 54 55 57
26 29 30 24 20 21 22 23 23 24 27 30 34 36 37 35 33 33 34 36 37 39 41 43 45 47 49 50 49 50 51 54 58 60 62 62 59 58 58 60 62 64 65
27 27 22 21 16 19 24 27 27 28 30 32 34 34 32 32 34 37 39 40 41 43 45 47 47 47 48 50 53 56 59 61 62 66 70 71 70 70 69 70 71 72 72
23 22 22 22 22 21 25 27 30 33 34 35 34 34 34 36 39 41 42 43 45 45 45 45 48 50 53 56 59 62 65 68 72 73 74 76 79 82 80 80 80 81 81
23 21 22 24 24 24 26 28 31 33 35 34 34 35 38 41 42 42 43 42 43 44 46 49 51 54 59 64 68 70 73 75 77 80 82 83 84 85 88 87 88 88 90
23 23 23 25 27 28 29 30 31 33 35 35 36 38 40 40 41 41 41 41 44 47 50 54 57 60 64 67 70 73 76 78 81 83 85 88 91 93 97 99 96 97 95
25 25 26 28 31 30 29 31 33 35 35 37 38 38 39 38 37 38 42 45 48 50 52 55 60 64 68 72 75 76 79 81 84 87 90 92 96 99 103 106 106 107 103
25 26 28 30 30 30 30 32 34 35 37 37 35 35 35 37 40 43 45 48 51 54 58 62 67 71 73 75 77 78 81 85 89 93 97 100 103 105 107 109 111 112 110
28 28 29 30 30 31 32 33 35 36 34 33 34 36 38 41 43 46 51 54 58 62 67 71 73 75 77 78 80 84 89 93 97 99 102 104 106 107 106 103 97 91 96
27 27 29 32 33 32 33 35 34 34 34 35 37 39 41 45 49 54 57 61 65 69 72 75 77 77 79 84 88 90 94 97 99 101 103 104 104 101 95 87 82 78 80
25 28 30 31 31 34 35 34 34 34 35 36 39 43 47 52 56 58 61 64 68 71 73 73 76 81 85 89 92 95 97 99 100 101 99 94 90 85 81 79 79 78 79
24 27 29 30 33 35 35 34 33 34 37 41 46 50 53 56 59 62 65 69 70 71 72 77 82 86 90 94 96 96 98 100 98 94 88 82 82 82 82 82 81 82 80
24 27 29 31 32 33 33 33 35 39 43 48 51 53 56 59 62 65 66 67 69 73 79 83 86 91 94 96 96 98 98 95 91 86 87 88 89 88 89 89 89 87 86
26 28 29 30 30 31 34 37 40 44 48 52 54 56 59 61 62 64 66 70 75 79 83 86 91 94 95 97 97 94 92 85 85 89 90 89 88 87 85 84 86 87 90
28 29 28 28 30 34 38 42 45 49 51 54 57 59 60 63 65 67 71 75 79 82 86 90 92 94 95 93 93 90 85 86 89 89 86 83 78 74 73 73 72 73 73
29 29 30 33 36 39 42 46 49 52 54 56 58 60 63 65 68 72 75 78 82 86 89 91 93 93 88 88 84 86 87 90 90 84 78 71 65 63 67 69 72 72 71
29 31 33 36 39 42 45 48 52 55 56 59 61 63 65 68 71 75 78 81 85 87 90 93 91 85 82 81 84 86 89 91 85 77 70 61 61 65 66 63 63 60 58
32 33 36 38 41 45 49 52 54 57 59 62 64 65 68 71 74 78 80 84 86 89 92 89 85 79 78 82 83 87 90 86 76 69 63 61 63 66 62 60 58 52 49
33 35 38 41 45 49 52 54 56 59 62 64 65 68 70 73 76 79 82 85 87 90 87 84 80 78 78 80 84 90 89 78 70 65 63 63 63 61 58 57 53 48 43
34 37 42 46 49 52 55 58 60 62 63 65 67 69 72 74 78 82 83 86 88 87 84 78 78 78 78 80 86 90 83 73 67 63 61 60 58 54 52 56 54 48 45
38 42 46 50 53 56 59 61 63 63 65 67 69 71 73 77 81 82 85 86 88 83 78 75 75 76 78 80 86 85 76 72 65 60 56 54 50 49 51 55 54 48 42
44 47 51 53 57 61 63 65 65 65 66 68 69 72 76 80 81 84 86 87 84 78 74 72 72 74 76 81 87 80 72 69 66 60 53 48 47 47 50 52 49 42 36
49 51 54 58 63 65 66 66 64 65 67 68 70 74 78 80 84 87 88 83 79 74 71 71 72 72 75 81 85 76 70 67 63 55 49 46 45 46 47 48 42 35 32
52 55 59 64 66 67 66 64 65 66 66 68 72 76 78 82 86 87 84 79 74 69 70 72 72 73 75 83 80 71 68 64 59 50 46 44 41 41 43 40 35 34 27
56 60 65 67 69 67 65 65 64 65 68 72 75 78 81 86 86 83 79 74 68 69 70 71 74 74 76 83 75 68 65 62 55 48 47 43 35 35 36 32 30 22 12
61 66 69 70 66 63 63 63 65 68 71 74 77 82 86 87 85 81 72 67 66 67 69 71 74 74 80 81 68 66 61 55 54 52 49 40 34 32 26 22 13 11 13
Wind_Direction
252 256 263 273 280 280 274 276 273 272 280 285 290 294 295 295 295 294 293 293 292 292 292 291 290 291 292 292 294 296 298 298 298 297 295 295 294 293 292 291 291 291 292
252 258 267 266 269 275 273 272 271 275 285 292 296 296 295 294 293 294 293 292 293 293 295 296 297 298 300 301 300 299 299 300 300 299 298 296 292 291 290 290 290 290 290
260 264 257 254 266 278 278 275 280 287 293 296 297 295 294 294 293 294 296 296 297 298 299 300 300 300 300 301 301 300 300 300 299 298 298 295 293 290 288 287 287 286 285
263 256 253 259 264 265 269 279 287 294 298 299 296 295 295 295 296 298 299 301 301 302 302 302 302 303 302 302 301 301 300 299 299 297 296 295 294 293 291 289 289 288 287
256 254 257 262 268 270 273 280 288 293 295 293 292 293 295 298 300 301 303 302 302 302 303 304 304 305 306 307 306 305 304 303 302 301 299 298 296 296 294 290 289 289 288
254 258 261 266 269 272 278 284 287 289 291 291 293 296 298 298 300 302 301 303 305 305 307 309 310 312 313 312 309 306 304 302 300 299 298 298 297 296 296 295 292 290 289
258 258 262 266 271 277 284 288 290 291 293 295 298 299 300 300 298 299 302 303 305 307 307 309 310 311 310 310 308 305 302 301 299 299 299 299 298 298 296 295 293 290 287
254 260 265 269 275 282 285 289 291 295 298 298 297 299 297 297 300 301 303 304 305 308 310 311 312 311 310 308 307 305 303 302 302 302 302 301 300 299 297 296 294 291 289
260 264 272 276 278 283 288 291 294 298 298 297 298 297 299 301 303 304 307 311 312 313 314 313 312 311 311 309 307 305 306 305 304 304 303 302 300 298 296 295 294 295 292
265 270 272 275 281 287 291 293 297 298 297 298 299 301 303 304 306 310 312 314 314 314 313 312 312 311 308 308 307 307 307 306 306 305 303 301 299 297 295 296 295 294 291
268 269 273 279 289 293 293 297 297 298 298 301 301 304 307 308 310 313 314 313 313 312 312 311 309 309 309 309 309 309 308 308 307 306 304 300 298 297 296 295 294 292 288
268 276 283 289 290 294 298 301 299 300 302 301 305 306 308 310 312 313 313 312 312 312 311 310 311 311 310 311 310 310 311 311 309 305 304 303 301 298 295 292 290 288 285
276 281 285 289 296 299 299 299 300 301 303 304 306 309 310 311 311 310 310 312 312 312 312 313 312 311 312 312 313 313 314 311 309 308 306 303 300 298 294 290 286 283 281
279 282 287 292 296 296 297 300 302 303 305 307 308 309 309 309 308 311 312 312 312 314 314 313 313 314 315 316 316 315 312 312 311 310 308 306 304 302 298 294 290 286 282
280 285 290 294 296 299 301 302 304 305 306 308 308 308 308 309 311 311 311 313 314 313 314 315 316 318 318 317 315 313 314 314 314 313 311 310 309 306 306 305 302 300 297
281 289 296 298 296 297 301 304 306 306 307 306 307 308 308 309 309 310 313 313 313 315 317 318 319 319 317 315 314 314 316 317 317 315 313 312 310 311 308 306 307 309 310
285 289 288 291 295 301 303 304 305 304 305 307 308 308 309 309 310 312 313 313 315 318 318 320 320 317 315 315 315 316 318 320 319 317 314 311 311 310 310 313 316 313 309
283 284 289 296 300 302 303 304 304 306 307 307 308 309 309 310 312 312 313 316 318 319 320 321 318 317 317 317 318 319 321 321 320 318 315 311 313 312 311 314 318 317 311
283 288 295 299 301 302 304 305 306 307 307 308 308 308 309 310 311 313 316 318 320 323 322 319 317 318 319 319 319 321 323 321 320 318 315 313 314 312 311 314 318 319 318
287 294 298 300 301 304 306 306 307 307 307 307 307 308 309 310 313 316 318 321 325 323 320 318 319 320 321 320 322 324 322 321 320 317 315 313 313 312 316 319 316 318 319
292 295 297 301 304 305 306 307 307 307 307 307 307 308 310 313 315 319 322 324 323 320 318 319 320 321 320 322 324 323 321 321 321 319 318 316 312 313 314 317 318 319 323
293 296 300 304 304 305 307 307 307 306 306 307 308 311 313 315 318 321 323 322 320 317 317 319 321 321 321 323 325 324 323 323 321 321 319 315 313 314 313 316 319 322 325
294 299 303 304 306 306 307 307 306 306 305 307 310 313 314 317 321 322 322 319 317 316 318 320 321 321 321 324 327 324 324 322 320 319 318 314 311 313 315 318 319 324 327
299 301 303 305 306 306 305 305 304 304 306 309 311 313 316 319 321 321 319 317 316 317 319 320 321 323 324 327 327 324 324 323 322 321 321 319 312 315 317 318 321 327 331
299 302 304 303 304 304 303 303 304 307 310 311 314 316 318 319 319 318 317 316 317 318 319 320 322 323 326 329 326 325 325 326 328 328 326 324 317 317 318 321 324 338 3
300 301 301 304 303 303 305 306 308 311 313 314 315 317 317 317 317 316 316 318 318 318 319 320 323 325 328 329 325 325 325 327 328 326 324 324 323 324 325 327 348 16 1